Regional Weather Roundup
Issued by NWS

Home | Current Version | Previous Version | Text Only | Print | Product List | Glossary On
Versions: 1 2 3 4 5 6 7 8 9 10 11 12 13 14 15 16 17 18 19 20 21 22 23 24 25 26 27
000
ASUS44 KBMX 250010
RWRAL

ALABAMA REGIONAL WEATHER ROUNDUP
NATIONAL WEATHER SERVICE BIRMINGHAM AL
700 PM CDT THU APR 24 2014

NOTE: "FAIR" INDICATES FEW OR NO CLOUDS BELOW 12,000 FEET
WITH NO SIGNIFICANT WEATHER AND/OR OBSTRUCTIONS TO VISIBILITY.

THE REMARK "TC" DENOTES TEMPERATURE IN DEGREES CELSIUS.

ALZ001>011-014-016>018-020-250100-
NORTH ALABAMA

CITY           SKY/WX    TMP DP  RH WIND       PRES   REMARKS
MUSCLE SHOALS  MOCLDY    76  53  44 S6        29.82R
6HR MIN TEMP:  76; 6HR MAX TEMP:  83;

HUNTSVILLE     MOCLDY    78  53  41 S6        29.83R
6HR MIN TEMP:  78; 6HR MAX TEMP:  82;

DECATUR        PTCLDY    78  53  41 S9        29.84R
6HR MIN TEMP:  77; 6HR MAX TEMP:  83;

HALEYVILLE     FAIR      75  56  51 S7        29.86R
6HR MIN TEMP:  75; 6HR MAX TEMP:  81;

GADSDEN        PTCLDY    77  50  38 S3        29.84F
6HR MIN TEMP:  77; 6HR MAX TEMP:  82;

$$

ALZ012-013-022-023-030>036-040>044-250100-
WEST CENTRAL ALABAMA

CITY           SKY/WX    TMP DP  RH WIND       PRES   REMARKS
TUSCALOOSA     CLOUDY    77  59  53 S5        29.83R
6HR MIN TEMP:  77; 6HR MAX TEMP:  84;

$$

ALZ015-024>027-033>036-040>044-250100-
CENTRAL ALABAMA

CITY           SKY/WX    TMP DP  RH WIND       PRES   REMARKS
BIRMINGHAM     CLOUDY    79  52  38 S6        29.87S
6HR MIN TEMP:  79; 6HR MAX TEMP:  84;

MONTGOMERY     CLEAR     80  57  45 S5        29.86S
6HR MIN TEMP:  80; 6HR MAX TEMP:  87;

SHELBY CO ARPT CLOUDY    79  56  45 S3        29.85F
6HR MIN TEMP:  79; 6HR MAX TEMP:  83;

MAXWELL AFB    PTCLDY    80  61  52 S6        29.85S
6HR MIN TEMP:  80; 6HR MAX TEMP:  85;

GREENVILLE     NOT AVBL
$$

ALZ019-021-028-029-037-038-045>048-250100-
EAST CENTRAL ALABAMA

CITY           SKY/WX    TMP DP  RH WIND       PRES   REMARKS
ANNISTON       PTCLDY    76  53  44 S3        29.86F
6HR MIN TEMP:  76; 6HR MAX TEMP:  83;

ALEXANDER CITY CLEAR     78  53  41 CALM      29.89S
6HR MIN TEMP:  78; 6HR MAX TEMP:  84;

AUBURN         PTCLDY    73  52  46 S6        29.93S
6HR MIN TEMP:  73; 6HR MAX TEMP:  81;

$$

ALZ051>064-250100-
SOUTHWEST ALABAMA

CITY           SKY/WX    TMP DP  RH WIND       PRES   REMARKS
MOBILE         MOCLDY    71  64  78 S12       29.90F
6HR MIN TEMP:  71; 6HR MAX TEMP:  82;

BROOKLEY FIELD CLEAR     71  65  81 S9        29.91F
6HR MIN TEMP:  71; 6HR MAX TEMP:  78;

EVERGREEN      CLEAR     78  58  49 S10       29.90R
6HR MIN TEMP:  78; 6HR MAX TEMP:  86; 6HR PCP: TRACE;

$$

ALZ049-050-065>069-250100-
SOUTHEAST ALABAMA

CITY           SKY/WX    TMP DP  RH WIND       PRES   REMARKS
DOTHAN         CLEAR     77  60  55 SW10      29.93F
6HR MIN TEMP:  77; 6HR MAX TEMP:  85;

OZARK          CLEAR     76  60  57 S12       29.90F
6HR MIN TEMP:  76; 6HR MAX TEMP:  85; 6HR PCP: TRACE;

TROY           PTCLDY    77  59  53 S6        29.88F
6HR MIN TEMP:  77; 6HR MAX TEMP:  85;

EUFAULA        FAIR      76  62  62 CALM      29.87F
6HR MIN TEMP:  76; 6HR MAX TEMP:  87;

$$



USA.gov is the U.S. government's official web portal to all federal, state and local government web resources and services.